Flag for U.S.A. Weather past 2 weeks in Cleveland, Ohio, U.S.A.

Now
21 °F

Light snow. Ice fog.


Feels Like: 7 °F
Forecast: 21 / 24 °F
Wind: 16 mph from Northeast

Location: Cleveland-Hopkins International Airport

Current Time: Jan 25, 2015 at 7:46:51 PM

Latest Report: Jan 25, 2015 at 6:51 PM


Visibility: 2 mi

Pressure: 29.93 "Hg

Humidity: 85%

Dew point: 17 °F

Location of ClevelandLocation

Historic Weather in Cleveland — Graph

°F

Cleveland temperature yesterday

Maximum temperature yesterday: 34 °F (at 11:51 PM)
Minimum temperature yesterday: 24 °F (at 12:51 AM)
Average temperature yesterday: 28 °F

Past Weeks' High & Low Weather Summary

 TemperatureHumidityPressure
High44 °F (Jan 17, 6:51 PM)96% (Jan 12, 5:00 AM)30.75 "Hg (Jan 12, 5:00 AM)
Low-2 °F (Jan 14, 2:51 AM)43% (Jan 11, 1:51 PM)29.62 "Hg (Jan 24, 2:51 PM)
Average26 °F77%30.15 "Hg
* Reported Jan 10 6:51 PM — Jan 25 6:51 PM, Cleveland, Weather by CustomWeather, © 2014

Note: Actual official high and low records may vary slightly from our data, if they occured in-between our weather recording intervals... More about our weather records

Advertising

Cleveland weather history for previous 24 hours

 ConditionsComfort  
Time TempWeatherWind HumidityBarometerVisibility
6:51 PM
Jan 25
21 °FLight snow. Ice fog.16 mph85%29.93 "Hg2 mi
5:56 PM22 °FLight snow. Ice fog.17 mph85%29.89 "Hg2 mi
4:51 PM22 °FLight snow. Ice fog.14 mph85%29.91 "Hg1 mi
3:51 PM22 °FLight snow. Mostly cloudy.16 mph82%29.89 "Hg1 mi
2:51 PM23 °FLight snow. Mostly cloudy.18 mph81%29.88 "Hg6 mi
1:51 PM23 °FMore clouds than sun.14 mph85%29.88 "Hg10 mi
12:51 PM23 °FLight snow. Mostly cloudy.15 mph81%29.90 "Hg8 mi
12:02 PM22 °FLight snow. Ice fog.16 mph85%29.89 "Hg1 mi
11:51 AM22 °FLight snow. Ice fog.15 mph89%29.92 "Hg2 mi
10:51 AM24 °FLow clouds.21 mph84%29.92 "Hg9 mi
9:51 AM27 °FIce fog.20 mph89%29.88 "Hg6 mi
8:51 AM28 °FIce fog.20 mph93%29.85 "Hg4 mi
7:51 AM30 °FIce fog.15 mph89%29.83 "Hg5 mi
6:51 AM32 °FIce fog.15 mph92%29.80 "Hg3 mi
5:51 AM33 °FFog.No wind96%29.78 "Hg3 mi
4:51 AM33 °FLight snow. Fog.5 mph92%29.78 "Hg2 mi
3:51 AM34 °FFog.6 mph88%29.77 "Hg5 mi
2:51 AM33 °FFog.6 mph92%29.76 "Hg4 mi
1:51 AM33 °FFog.10 mph92%29.75 "Hg4 mi
1:04 AM33 °FLight snow. Fog.8 mph92%29.71 "Hg2 mi
12:51 AM33 °FLight snow. Fog.8 mph92%29.73 "Hg3 mi
11:51 PM
Jan 24
34 °FOvercast.9 mph85%29.73 "Hg7 mi
10:51 PM33 °FFog.12 mph85%29.72 "Hg6 mi
9:51 PM32 °FIce fog.10 mph88%29.72 "Hg6 mi
8:51 PM32 °FIce fog.10 mph88%29.72 "Hg5 mi
7:51 PM32 °FIce fog.15 mph85%29.70 "Hg5 mi
Weather by CustomWeather, © 2014

See weather overviewHow to use our weather pages